Location: Strada George Coșbuc
(47.6577°N, 23.5639°E)
Time: 07:51:43
(UTC+03:00)

ISS - Pass Details

Date: 17 September 2017
Orbit: 401 x 407 km, 51.6° (Epoch: 24 September)

Event Time Altitude Azimuth Distance (km) Brightness Sun altitude
Exits shadow 04:39:18 38° 53° (NE) 640 -2.4 -24.0°
Drops below altitude 10° 04:41:45 10° 87° (E) 1,471 -0.2 -23.6°
Sets 04:43:53 0° 94° (E) 2,330 0.9 -23.3°
